Vorticity
11 11 7 0 2 10 17 3 10 5 -5 5 4 14 5 3 14 17 9 3 4 4 5 5 5 6 6 5 4 4 5 5 4 4 4 3 3 3 3 3 4 4 4 5 4 4 5 5 5
8 4 4 1 -5 12 -1 7 2 6 12 3 0 -2 2 10 13 10 10 7 3 2 4 4 5 5 5 6 5 5 5 6 6 5 4 4 4 4 4 4 4 2 4 3 4 3 4 4 4
7 4 0 -1 13 10 12 4 10 7 5 1 5 -0 -3 -1 1 8 10 7 6 5 4 4 4 4 5 6 6 6 5 5 5 5 5 5 6 5 4 3 4 5 5 5 4 4 3 3 2
7 -6 2 3 14 2 4 7 6 4 3 3 4 14 11 9 10 7 5 8 7 6 4 5 5 5 4 4 5 5 6 7 7 7 6 4 3 3 3 4 5 5 4 4 5 5 6 5 4
7 2 16 10 4 9 7 7 5 2 7 7 12 -5 15 8 6 7 6 6 7 8 6 5 5 4 4 4 5 6 6 7 7 6 6 7 7 7 8 8 6 6 6 6 4 4 3 5 6
-4 7 -0 16 2 8 7 9 9 5 8 4 16 -7 8 9 5 7 7 5 6 7 10 7 8 5 4 5 5 7 8 6 4 4 5 6 6 5 4 4 4 3 3 5 9 8 8 5 6
-4 5 14 4 1 7 2 9 5 9 10 -1 4 5 16 2 5 12 7 9 11 7 5 4 5 6 5 5 5 7 7 6 4 3 3 3 2 1 3 6 8 9 8 2 -1 3 5 5 4
-4 8 8 5 19 1 8 4 10 3 12 4 -8 42 14 15 9 11 6 11 8 5 3 4 -6 8 5 2 8 11 7 2 2 3 1 2 5 7 13 -1 0 2 8 7 9 6 4 7 8
9 6 20 9 5 9 9 9 7 7 1 3 13 -6 5 15 11 12 13 6 6 -2 -12 28 11 7 2 10 0 13 15 4 -3 -1 8 8 4 1 -1 -1 -7 4 7 9 4 8 -2 -1 6
7 7 17 5 11 14 6 9 0 8 2 10 10 5 7 12 18 8 9 9 -7 7 22 -8 -2 5 3 3 4 2 19 14 8 10 0 -5 5 16 16 16 10 3 11 -2 1 1 1 4 4
4 1 10 6 4 6 8 6 9 17 -2 11 12 11 19 12 0 28 4 -3 -20 4 0 4 -2 1 7 16 8 8 5 14 6 -1 -12 12 4 -5 -7 -1 7 7 3 3 9 5 5 2 6
15 8 9 6 3 7 6 6 3 -16 -22 -10 12 9 13 20 19 5 -4 -10 -16 28 2 16 8 6 15 21 13 3 7 -1 1 4 5 3 1 6 7 10 9 7 4 5 9 5 4 7 3
15 12 8 8 8 8 7 10 -1 11 6 9 8 9 11 12 8 10 -5 -3 16 14 -3 9 -8 13 11 8 17 3 3 8 5 2 6 9 11 10 8 6 6 7 8 4 5 9 7 10 10
-1 10 8 6 12 17 16 14 21 10 5 5 24 14 7 6 18 -7 -14 23 10 14 6 -8 10 4 10 16 7 2 2 13 14 10 8 6 5 8 10 10 10 11 11 11 11 11 11 11 11
13 8 10 9 13 9 18 -2 14 7 13 4 5 2 5 9 9 -5 10 5 4 3 -5 14 9 10 14 12 8 8 10 7 6 5 4 7 9 9 8 9 9 10 10 11 12 13 13 12 12
8 14 5 4 10 6 -6 3 19 12 13 10 9 11 6 3 4 1 -1 -5 13 1 24 14 11 14 21 16 10 6 5 5 4 5 7 7 7 6 7 6 6 7 8 8 8 10 12 12 12
12 5 9 -3 13 7 7 5 11 13 16 5 8 9 3 7 3 -7 25 -5 3 18 4 14 11 9 5 8 6 4 3 4 7 8 8 7 7 6 5 6 7 6 8 9 10 10 10 9 8
42 12 7 11 8 11 7 9 13 8 18 14 9 5 3 2 7 13 2 4 20 10 12 3 4 1 1 7 6 5 6 7 8 10 8 6 6 8 8 7 8 10 10 11 11 9 6 6 7
15 8 9 8 4 4 8 10 10 10 12 6 4 2 5 5 5 17 2 9 9 4 6 12 14 8 5 5 5 8 11 10 8 6 7 7 8 10 12 14 13 12 12 10 5 7 8 7 8
10 9 8 5 5 10 9 6 10 12 6 6 5 10 4 7 12 12 -3 5 11 11 9 -3 -10 2 5 8 11 10 7 7 6 7 8 8 10 13 14 12 12 9 6 7 7 7 7 8 10
9 7 14 -7 8 4 7 6 -0 11 7 12 6 1 15 16 9 -6 13 6 13 6 1 1 7 7 10 13 10 8 6 6 5 6 8 10 12 12 12 10 6 6 6 6 7 8 9 10 10
7 12 9 9 2 10 8 33 3 7 14 5 7 22 10 6 -5 15 -1 7 6 13 27 3 4 7 12 9 6 4 4 6 6 9 9 10 10 11 9 7 8 8 8 9 9 10 10 9 9
11 9 5 6 6 2 7 5 125 7 3 20 24 4 9 6 12 1 -5 8 14 19 3 2 3 4 6 5 3 3 5 8 8 7 7 8 12 11 8 8 8 8 8 8 9 9 9 9 9
6 7 6 8 7 17 7 9 2 6 5 15 10 13 10 4 11 -2 -6 11 8 7 1 2 1 0 3 6 4 4 6 7 7 8 9 10 11 9 7 7 7 7 7 8 9 9 8 7 8
3 7 3 11 21 -1 16 14 1 9 18 15 12 11 8 10 3 -1 -2 12 7 2 2 2 1 -1 0 4 2 4 6 7 8 8 9 10 10 8 6 7 7 7 7 8 8 8 8 7 7
12 5 -25 15 20 26 6 18 5 5 3 20 17 11 10 5 7 -1 5 3 7 4 3 0 8 -5 7 1 1 2 6 8 9 9 9 12 10 8 6 7 7 6 6 6 6 7 7 7 7
0 9 6 11 -3 8 -5 -3 5 -0 1 21 16 11 8 5 5 4 8 -2 11 4 3 3 -2 3 1 1 2 2 5 9 10 9 11 12 10 7 7 7 7 7 7 6 6 6 7 7 7
5 23 4 -3 20 8 37 4 31 9 12 14 10 14 10 8 3 0 6 -0 4 8 -1 2 1 1 0 4 4 2 4 9 9 10 12 12 10 7 7 7 8 7 7 6 6 6 7 7 7
16 35 -2 17 -15 7 6 10 7 15 5 14 10 15 15 8 -3 10 -1 8 6 5 7 7 2 2 -2 -10 6 2 4 8 9 10 12 12 10 7 7 7 8 7 7 7 6 6 7 8 8
14 5 9 7 9 6 4 6 1 4 15 19 2 12 7 8 13 6 7 8 10 9 7 9 4 2 6 7 7 2 4 7 8 9 14 13 9 7 6 7 8 8 8 7 6 6 7 8 8
Height
3186 3186 3187 3187 3191 3181 3180 3186 3187 3189 3190 3192 3192 3192 3192 3189 3187 3194 3190 3191 3191 3192 3192 3192 3192 3193 3193 3193 3193 3193 3193 3194 3194 3195 3195 3194 3193 3192 3192 3192 3192 3191 3191 3190 3190 3190 3189 3190 3189
3187 3188 3189 3188 3187 3178 3181 3188 3187 3191 3192 3192 3193 3193 3193 3190 3189 3190 3191 3191 3192 3192 3193 3194 3194 3193 3194 3194 3194 3194 3194 3195 3195 3195 3195 3195 3195 3194 3193 3193 3192 3192 3191 3190 3190 3190 3189 3189 3190
3188 3188 3191 3191 3184 3180 3184 3189 3190 3192 3192 3193 3193 3193 3192 3192 3191 3191 3191 3192 3193 3193 3193 3193 3194 3194 3195 3195 3195 3195 3195 3195 3195 3195 3195 3195 3195 3195 3195 3195 3194 3193 3192 3192 3190 3190 3189 3189 3188
3189 3192 3193 3190 3185 3189 3189 3191 3191 3193 3193 3194 3193 3191 3192 3191 3191 3191 3191 3192 3192 3192 3192 3192 3193 3191 3193 3194 3194 3194 3195 3195 3196 3196 3196 3195 3195 3195 3194 3193 3193 3192 3192 3191 3191 3191 3190 3189 3188
3192 3193 3190 3188 3189 3190 3191 3192 3192 3193 3193 3194 3194 3190 3190 3191 3191 3191 3191 3191 3191 3192 3192 3192 3192 3191 3191 3193 3193 3193 3193 3194 3195 3196 3196 3196 3195 3195 3194 3194 3192 3192 3191 3190 3189 3188 3188 3188 3187
3194 3194 3188 3184 3188 3192 3192 3192 3193 3193 3193 3194 3191 3189 3190 3191 3191 3191 3191 3191 3192 3192 3193 3192 3193 3193 3191 3192 3194 3194 3194 3193 3193 3194 3193 3194 3193 3193 3193 3193 3192 3191 3190 3188 3187 3186 3186 3185 3184
3192 3193 3188 3189 3189 3192 3193 3193 3193 3193 3193 3193 3194 3187 3190 3190 3190 3190 3191 3191 3191 3191 3192 3192 3193 3194 3193 3193 3193 3193 3193 3193 3192 3191 3192 3192 3191 3192 3191 3190 3190 3189 3188 3187 3186 3183 3182 3181 3181
3192 3193 3191 3189 3188 3190 3193 3193 3192 3194 3190 3191 3192 3181 3187 3189 3189 3190 3190 3190 3192 3192 3192 3192 3193 3195 3194 3194 3192 3191 3191 3191 3189 3190 3190 3190 3190 3190 3190 3190 3188 3186 3185 3184 3182 3181 3180 3178 3178
3192 3192 3187 3189 3192 3191 3193 3194 3193 3192 3189 3189 3190 3190 3189 3188 3189 3189 3190 3190 3192 3192 3192 3193 3194 3194 3193 3192 3191 3190 3190 3188 3190 3190 3189 3190 3190 3189 3188 3187 3185 3184 3181 3180 3179 3178 3176 3174 3175
3195 3192 3189 3191 3192 3193 3193 3193 3193 3194 3187 3186 3188 3188 3188 3188 3189 3190 3191 3192 3193 3193 3193 3194 3193 3192 3191 3190 3190 3189 3189 3188 3187 3187 3188 3189 3188 3186 3185 3183 3181 3180 3179 3177 3176 3174 3172 3170 3169
3194 3192 3191 3191 3191 3192 3192 3193 3193 3192 3191 3185 3186 3188 3187 3188 3189 3191 3191 3193 3194 3194 3193 3192 3193 3191 3190 3188 3187 3189 3188 3188 3188 3188 3188 3187 3185 3184 3182 3179 3178 3177 3175 3174 3172 3171 3169 3167 3166
3190 3191 3191 3191 3190 3190 3191 3192 3187 3188 3188 3186 3186 3187 3187 3188 3189 3189 3190 3192 3193 3192 3191 3192 3190 3188 3186 3187 3187 3188 3188 3187 3188 3187 3186 3184 3182 3180 3179 3176 3175 3173 3171 3170 3168 3167 3165 3162 3161
3188 3189 3188 3188 3187 3188 3189 3188 3181 3185 3187 3186 3187 3186 3187 3188 3189 3190 3191 3192 3193 3192 3191 3189 3187 3186 3186 3186 3186 3187 3187 3186 3186 3185 3184 3181 3180 3178 3175 3173 3171 3169 3168 3167 3165 3162 3160 3158 3156
3186 3185 3185 3185 3185 3185 3186 3183 3183 3182 3185 3185 3186 3186 3188 3189 3190 3191 3191 3191 3192 3191 3190 3189 3188 3186 3185 3185 3185 3186 3186 3185 3184 3183 3181 3179 3177 3174 3172 3170 3168 3167 3165 3162 3160 3157 3155 3152 3149
3184 3184 3183 3183 3183 3183 3185 3184 3178 3179 3181 3183 3185 3186 3187 3189 3190 3191 3191 3190 3189 3189 3189 3187 3185 3184 3183 3184 3184 3185 3183 3183 3182 3181 3179 3176 3174 3171 3169 3167 3165 3162 3160 3158 3155 3153 3150 3148 3146
3182 3183 3182 3181 3182 3181 3183 3180 3177 3177 3179 3181 3184 3186 3186 3188 3189 3190 3189 3187 3187 3188 3187 3186 3185 3184 3183 3182 3183 3182 3181 3181 3179 3177 3175 3173 3170 3168 3165 3163 3160 3158 3155 3152 3150 3148 3146 3143 3142
3180 3178 3178 3179 3180 3180 3181 3177 3175 3176 3177 3179 3182 3183 3185 3186 3187 3187 3187 3187 3187 3187 3186 3185 3184 3183 3182 3182 3182 3180 3179 3178 3176 3174 3173 3170 3168 3165 3162 3159 3156 3153 3150 3148 3146 3145 3142 3140 3138
3174 3176 3178 3178 3179 3179 3179 3175 3175 3175 3175 3178 3180 3181 3183 3183 3185 3185 3186 3186 3186 3186 3184 3184 3184 3184 3184 3182 3180 3178 3177 3176 3175 3173 3171 3168 3166 3163 3159 3156 3153 3151 3149 3146 3143 3142 3140 3137 3134
3176 3175 3175 3176 3178 3179 3178 3177 3173 3173 3175 3176 3178 3180 3182 3183 3183 3184 3184 3184 3183 3183 3183 3183 3183 3183 3182 3181 3179 3177 3176 3175 3174 3172 3169 3166 3163 3160 3157 3154 3152 3149 3146 3143 3140 3137 3135 3132 3130
3175 3175 3174 3175 3177 3177 3176 3177 3174 3172 3173 3173 3175 3178 3178 3179 3180 3182 3183 3183 3182 3181 3182 3182 3182 3182 3181 3179 3178 3176 3175 3173 3171 3169 3167 3163 3160 3157 3154 3151 3149 3146 3143 3140 3137 3134 3132 3128 3124
3173 3172 3172 3175 3174 3174 3174 3173 3174 3170 3171 3171 3172 3175 3175 3176 3178 3179 3180 3181 3181 3181 3181 3181 3181 3181 3180 3178 3177 3176 3175 3172 3170 3167 3164 3161 3157 3154 3151 3149 3146 3143 3140 3137 3134 3131 3127 3125 3122
3170 3171 3171 3172 3173 3168 3168 3166 3169 3167 3166 3169 3169 3171 3174 3173 3175 3178 3178 3179 3179 3179 3179 3180 3181 3180 3178 3176 3175 3174 3172 3169 3167 3164 3161 3157 3154 3151 3148 3146 3143 3140 3138 3135 3131 3127 3123 3120 3117
3168 3169 3171 3171 3169 3168 3165 3166 3159 3166 3166 3164 3167 3172 3173 3171 3173 3176 3176 3178 3178 3178 3179 3178 3178 3177 3176 3175 3173 3172 3170 3167 3163 3160 3156 3153 3151 3148 3146 3143 3140 3137 3134 3131 3128 3125 3121 3116 3112
3167 3168 3169 3169 3167 3164 3161 3160 3159 3162 3164 3165 3168 3169 3172 3171 3171 3174 3175 3176 3176 3177 3177 3177 3176 3175 3175 3174 3172 3169 3166 3163 3159 3156 3152 3149 3146 3144 3143 3139 3136 3133 3130 3127 3124 3121 3116 3112 3107
3164 3165 3163 3162 3160 3156 3157 3160 3158 3159 3160 3163 3164 3167 3168 3169 3169 3171 3173 3174 3174 3175 3175 3175 3174 3173 3172 3171 3168 3166 3163 3159 3156 3153 3149 3145 3143 3140 3139 3136 3133 3130 3127 3124 3120 3116 3111 3107 3103
3159 3160 3157 3155 3150 3149 3156 3155 3155 3157 3158 3161 3163 3166 3166 3166 3168 3169 3170 3172 3173 3172 3172 3172 3171 3170 3169 3168 3165 3162 3159 3156 3153 3149 3145 3142 3140 3138 3136 3132 3129 3126 3123 3119 3115 3111 3106 3102 3098
3155 3156 3157 3155 3155 3153 3150 3152 3154 3156 3156 3158 3161 3164 3164 3165 3165 3167 3168 3168 3169 3169 3170 3168 3167 3166 3166 3165 3162 3160 3157 3153 3150 3146 3142 3139 3136 3134 3132 3128 3125 3121 3118 3114 3110 3106 3102 3098 3093
3151 3154 3156 3156 3153 3152 3143 3148 3146 3153 3153 3156 3158 3161 3162 3163 3163 3164 3164 3164 3165 3165 3165 3165 3164 3163 3162 3160 3159 3156 3153 3149 3146 3142 3138 3135 3132 3129 3127 3123 3120 3116 3113 3109 3106 3102 3097 3093 3087
3148 3147 3151 3151 3150 3150 3146 3146 3150 3152 3154 3154 3156 3158 3160 3161 3160 3160 3160 3161 3161 3160 3160 3161 3160 3159 3158 3156 3154 3152 3148 3145 3141 3137 3133 3130 3127 3124 3121 3118 3115 3111 3107 3104 3100 3096 3091 3086 3081
3144 3145 3147 3150 3149 3151 3152 3152 3150 3151 3152 3153 3156 3156 3156 3156 3155 3155 3155 3156 3156 3155 3155 3155 3155 3154 3153 3151 3149 3146 3143 3139 3135 3132 3128 3124 3121 3118 3115 3112 3109 3105 3101 3098 3094 3089 3084 3080 3075